Flag for Netherlands Weather past 2 weeks in Hoofddorp, Netherlands

46 °F

Passing clouds.

Feels Like: 42 °F
Forecast: 49 / 52 °F
Wind: 9 mph from Northwest

Location: Amsterdam Schiphol Airport

Current Time: Dec 1, 2015 at 1:41:17 AM

Latest Report: Dec 1, 2015 at 12:55 AM

Visibility: N/A

Pressure: 29.98 "Hg

Humidity: 93%

Dew point: 45 °F

Location of HoofddorpLocation

Historic Weather in Hoofddorp — Graph


Hoofddorp temperature yesterday

Maximum temperature yesterday: 54 °F (at 6:25 PM)
Minimum temperature yesterday: 45 °F (at 4:25 AM)
Average temperature yesterday: 49 °F

Past Weeks' High & Low Weather Summary

High59 °F (Nov 17, 7:25 PM)100% (Nov 17, 3:25 AM)30.21 "Hg (Nov 17, 3:25 AM)
Low30 °F (Nov 23, 5:25 AM)57% (Nov 30, 5:55 AM)29.30 "Hg (Nov 21, 6:55 AM)
Average46 °F85%29.79 "Hg
* Reported Nov 15 11:25 PM — Nov 30 11:55 PM, Hoofddorp, Weather by CustomWeather, © 2015

Note: Actual official high and low records may vary slightly from our data, if they occured in-between our weather recording intervals... More about our weather records


Hoofddorp weather history for previous 24 hours

Time TempWeatherWind HumidityBarometerVisibility
11:55 PM
Mon, Nov 30
48 °FPartly cloudy.12 mph94%29.95 "HgN/A
11:25 PM50 °FPassing clouds.15 mph88%29.92 "HgN/A
10:55 PM52 °FPartly cloudy.20 mph88%29.89 "HgN/A
10:25 PM54 °FPartly cloudy.24 mph94%29.86 "HgN/A
9:55 PM54 °FPartly cloudy.31 mph94%29.83 "Hg4 mi
9:25 PM54 °FPartly cloudy.29 mph94%29.80 "Hg4 mi
8:55 PM54 °FPartly cloudy.35 mph94%29.80 "Hg4 mi
8:25 PM54 °FPartly cloudy.33 mph94%29.77 "Hg4 mi
7:55 PM54 °FPartly cloudy.36 mph94%29.77 "Hg4 mi
7:25 PM54 °FPartly cloudy.35 mph94%29.77 "Hg4 mi
6:55 PM54 °FPartly cloudy.32 mph94%29.74 "Hg5 mi
6:25 PM54 °FLight rain. Partly cloudy.31 mph94%29.74 "Hg5 mi
5:55 PM52 °FPartly cloudy.33 mph94%29.74 "Hg4 mi
5:25 PM52 °FPartly cloudy.30 mph94%29.74 "Hg3 mi
4:55 PM52 °FPartly cloudy.33 mph94%29.74 "Hg3 mi
4:25 PM52 °FDrizzle. Broken clouds.31 mph94%29.77 "Hg3 mi
3:55 PM52 °FDrizzle. Broken clouds.32 mph94%29.77 "Hg2 mi
3:25 PM52 °FDrizzle. Broken clouds.31 mph94%29.77 "Hg3 mi
2:55 PM52 °FDrizzle. Broken clouds.29 mph94%29.80 "Hg3 mi
1:55 PM52 °FRain. Broken clouds.20 mph94%29.83 "Hg4 mi
1:25 PM45 °FRain. Broken clouds.12 mph100%29.86 "Hg4 mi
12:55 PM45 °FDrizzle. Partly sunny.12 mph100%29.89 "Hg6 mi
12:25 PM45 °FDrizzle. Broken clouds.13 mph93%29.92 "Hg4 mi
11:55 AM45 °FDrizzle. Mostly cloudy.8 mph93%29.95 "Hg6 mi
11:25 AM45 °FLight rain. Broken clouds.9 mph87%29.98 "HgN/A
10:55 AM46 °FLight rain. Partly sunny.14 mph76%29.98 "HgN/A
10:25 AM46 °FLight rain. Passing clouds.17 mph71%29.98 "HgN/A
9:55 AM46 °FLight rain. Passing clouds.10 mph62%30.01 "HgN/A
9:25 AM46 °FSunny.13 mph57%30.01 "Hg10 mi
8:55 AM46 °FSunny.15 mph62%30.01 "Hg10 mi
8:25 AM46 °FPassing clouds.16 mph62%30.01 "HgN/A
7:55 AM46 °FClear.17 mph62%30.01 "Hg10 mi
7:25 AM46 °FPassing clouds.17 mph62%30.01 "HgN/A
6:55 AM45 °FPassing clouds.22 mph66%30.01 "HgN/A
6:25 AM46 °FPassing clouds.21 mph66%30.01 "HgN/A
5:55 AM46 °FPassing clouds.23 mph57%29.98 "HgN/A
5:25 AM46 °FPassing clouds.21 mph66%29.98 "HgN/A
4:25 AM45 °FSprinkles. Passing clouds.24 mph76%29.95 "HgN/A
3:55 AM46 °FPassing clouds.23 mph66%29.95 "HgN/A
3:25 AM48 °FPassing clouds.29 mph62%29.92 "HgN/A
2:55 AM48 °FPassing clouds.26 mph66%29.89 "HgN/A
1:55 AM48 °FPassing clouds.29 mph66%29.86 "HgN/A
1:25 AM48 °FPassing clouds.31 mph66%29.86 "HgN/A
Weather by CustomWeather, © 2015

See weather overviewHow to use our weather pages